Theta_e
332 338 346 348 354 355 357 356 346 337 335 335 334 337 340 346 347 341 337 333 334 337 339 338 340 338 333 327 332 339 334 330 336 335 337 336 337 338 338 339 334 341 327 339 336 337 339 338 339
336 346 348 347 357 359 358 353 342 336 334 335 344 344 347 349 345 339 339 334 337 338 339 341 341 338 329 329 329 331 336 338 332 333 335 336 338 338 339 332 336 338 336 339 338 334 330 328 325
346 348 348 354 356 359 357 352 339 336 337 339 348 348 348 346 343 342 336 337 338 341 341 340 338 331 329 332 338 331 333 337 334 337 335 335 340 341 340 332 340 339 336 335 335 339 339 337 332
346 348 346 354 356 354 353 350 340 340 337 348 347 348 345 345 342 338 338 340 340 341 338 332 339 334 339 342 342 338 331 331 340 336 337 339 339 340 339 339 339 339 339 340 340 338 337 334 337
349 351 355 354 354 352 349 346 342 342 342 347 347 345 344 344 341 340 340 341 340 333 327 332 340 339 338 337 339 339 337 341 338 335 336 339 339 340 340 335 340 340 340 339 339 337 336 334 330
351 347 354 355 354 352 348 348 346 347 347 345 344 343 345 345 341 341 341 340 334 333 341 339 336 339 341 340 341 340 341 338 335 335 337 338 335 339 334 336 339 339 339 339 338 336 335 332 329
350 349 354 354 354 353 350 349 348 348 347 345 342 343 345 346 340 341 340 335 329 338 343 343 342 341 339 339 339 340 339 340 337 338 336 337 338 339 336 338 339 338 337 338 337 337 338 338 339
349 349 354 352 355 355 350 349 346 346 346 343 341 345 345 345 340 339 336 328 335 336 342 342 338 339 339 339 339 337 337 337 337 336 336 337 338 339 339 338 338 337 338 337 338 339 339 340 340
350 354 353 350 353 351 350 347 347 344 344 343 345 341 343 343 340 338 330 333 338 341 342 339 339 343 341 339 339 337 336 334 336 336 336 339 338 336 339 339 334 337 338 339 339 339 340 340 339
346 353 352 347 349 349 350 347 344 346 345 345 344 344 344 343 341 339 334 336 336 343 340 341 339 340 341 338 336 335 334 334 334 337 338 339 338 335 340 337 331 334 336 339 340 341 341 341 340
345 353 350 349 348 347 348 347 344 346 347 345 343 344 344 344 342 337 337 332 334 342 339 340 337 337 335 336 335 332 334 335 336 336 337 334 335 331 331 332 331 332 336 340 340 340 339 340 338
350 349 348 348 348 347 348 346 347 348 344 344 343 344 344 342 338 338 338 335 335 335 338 337 336 336 336 340 337 333 332 334 336 337 336 335 334 337 336 334 335 336 339 340 340 340 340 340 339
347 347 349 349 348 348 346 347 346 347 345 345 345 343 342 342 343 342 340 336 336 335 336 337 335 339 341 340 336 336 334 335 338 337 335 336 338 339 336 336 336 338 340 340 338 339 339 340 339
344 347 348 350 348 349 346 345 344 346 345 345 344 343 344 346 346 342 339 340 336 336 336 335 335 342 342 339 337 335 334 335 338 338 336 338 339 339 337 336 335 339 340 339 339 340 340 340 339
347 350 350 350 349 348 346 346 348 347 346 346 346 346 345 346 345 343 339 337 339 338 337 332 340 342 341 340 340 341 342 337 337 337 336 336 336 337 337 336 335 339 339 340 340 340 339 341 342
350 349 354 352 349 348 348 354 347 346 348 347 347 347 347 347 346 345 336 338 341 340 338 338 339 341 341 340 342 341 341 341 341 340 341 341 341 340 338 337 338 339 340 341 341 340 341 342 342
346 350 352 355 350 349 349 354 345 344 348 346 347 347 347 347 347 346 341 339 343 344 342 340 341 341 341 341 342 342 342 342 342 340 340 341 341 341 339 338 340 339 341 341 340 339 341 342 343
348 349 351 351 350 351 352 352 347 344 344 347 346 346 347 346 347 346 346 341 341 344 345 345 343 343 341 341 342 342 343 341 342 342 341 341 342 343 340 340 341 341 342 343 341 341 342 343 342
339 340 352 354 349 350 351 353 349 343 344 347 346 346 347 346 346 347 347 343 342 343 344 344 344 343 342 340 342 342 343 342 340 343 343 341 343 342 342 341 341 342 341 342 342 343 342 341 342
346 352 352 349 346 349 349 351 350 348 347 346 346 346 345 346 346 347 344 345 343 343 344 344 343 343 342 342 343 343 343 344 342 342 343 343 342 343 343 341 344 343 342 341 342 342 341 340 342
330 339 350 351 348 348 347 351 349 347 345 345 343 345 345 345 346 347 345 344 344 343 344 344 343 343 343 343 343 344 344 345 344 344 343 343 342 341 343 341 344 344 342 341 342 342 341 341 342
331 328 348 347 347 350 345 352 351 349 347 345 344 342 344 345 346 347 344 344 343 343 344 344 344 344 344 343 343 343 342 341 342 343 344 344 344 340 342 341 340 344 343 341 340 343 342 341 342
328 328 347 347 348 349 349 350 350 349 351 347 344 344 343 344 345 346 346 343 344 344 344 342 343 343 344 344 343 342 343 343 342 343 344 344 344 342 344 344 341 343 342 341 341 343 342 342 343
337 342 345 345 347 351 349 350 350 353 352 349 345 344 343 343 345 346 344 344 344 344 344 342 341 341 342 344 344 343 343 344 344 345 344 343 344 343 343 344 343 342 342 342 339 341 341 342 343
333 339 344 345 348 342 341 350 346 347 346 348 346 345 344 343 344 346 347 345 344 344 344 343 342 341 341 343 342 342 343 344 345 345 345 344 345 343 341 341 343 343 342 343 340 339 341 341 342
330 334 337 343 344 343 344 351 347 344 343 344 346 345 344 343 343 346 347 344 344 344 344 344 343 341 341 342 343 340 343 344 344 343 344 346 345 344 343 343 342 344 344 343 343 341 341 341 341
324 325 329 336 338 343 349 346 343 346 348 345 346 347 343 342 343 345 346 346 344 344 343 344 343 343 341 342 343 341 340 344 344 344 345 345 347 346 345 343 343 344 344 342 343 343 341 341 342
325 325 327 332 341 342 349 349 349 351 348 347 347 347 344 343 344 344 343 345 345 345 344 344 344 343 343 342 343 341 340 342 344 343 344 345 346 345 345 344 345 346 346 344 341 341 341 339 340
325 326 327 331 333 339 345 348 344 348 349 350 348 347 346 344 343 342 343 344 345 345 344 345 344 343 344 342 343 342 341 341 341 343 344 346 345 345 346 346 346 346 346 346 342 342 342 341 340
326 327 328 329 335 338 342 346 345 345 346 345 346 347 348 346 345 342 342 343 343 343 344 345 344 343 343 344 343 343 343 341 341 341 343 345 345 347 347 346 346 346 347 346 344 342 343 342 342
Wind_Speed
7 6 2 2 1 1 2 5 5 15 13 9 20 6 9 6 1 5 20 19 20 18 16 16 12 10 8 8 8 9 9 9 9 10 10 11 12 12 13 14 15 15 17 18 18 18 18 17 17
8 5 2 0 1 2 3 2 13 14 19 26 8 13 4 4 4 17 21 22 20 19 17 15 11 7 7 7 7 7 8 9 9 10 10 10 12 11 13 14 16 16 17 17 17 18 18 18 16
7 2 1 1 1 2 3 4 14 16 20 19 7 8 4 3 11 19 24 24 21 18 16 13 11 9 8 9 9 8 9 9 10 10 11 12 12 13 13 16 15 16 18 18 16 15 15 16 16
3 2 2 0 3 5 3 9 22 23 24 5 14 9 6 6 16 19 27 23 20 17 15 13 11 9 9 8 8 9 9 11 9 11 12 12 13 14 15 15 16 15 15 15 15 16 15 13 14
2 1 1 3 2 5 10 11 20 19 16 11 5 6 13 9 9 27 24 22 18 17 15 13 10 9 9 9 9 9 10 10 11 13 13 12 13 13 13 15 15 16 15 13 14 15 15 15 14
2 1 1 2 3 2 4 11 18 13 12 14 16 17 8 8 22 23 21 20 17 16 14 12 11 8 8 8 9 9 9 11 12 13 13 14 14 15 13 15 15 16 16 15 14 14 14 15 16
2 1 2 2 7 1 3 5 8 11 13 8 21 10 10 18 25 22 21 20 17 14 13 12 10 9 8 9 9 9 10 11 12 13 14 15 13 14 14 14 14 15 13 14 16 15 14 15 16
3 3 4 1 11 3 2 4 13 13 8 16 19 8 13 22 26 24 21 19 16 13 12 11 10 10 8 9 9 10 11 12 13 15 15 15 13 11 12 13 12 13 13 15 13 14 14 13 14
2 2 3 2 9 5 2 6 5 11 17 6 3 20 23 27 26 24 20 17 14 13 12 10 10 10 9 9 10 11 10 12 13 15 15 15 14 12 11 10 9 11 13 13 12 12 12 13 13
2 1 2 2 3 4 4 11 14 8 14 14 22 21 28 26 25 22 20 16 14 12 12 11 10 10 10 9 10 11 11 12 15 15 15 14 14 11 11 10 11 11 12 11 11 11 11 11 13
3 1 8 4 1 6 7 12 12 16 8 20 33 31 26 25 22 19 18 15 14 12 11 11 11 11 11 12 12 12 13 15 15 14 15 16 14 13 12 12 12 12 12 11 9 9 10 12 14
2 3 7 8 11 7 5 12 10 5 5 21 31 33 27 24 21 18 17 15 14 13 12 12 12 13 13 13 13 13 15 16 15 14 13 14 14 12 11 12 12 12 11 8 7 8 10 9 10
4 3 9 13 15 14 12 9 7 14 20 25 26 27 26 21 18 15 14 15 15 13 13 13 14 14 13 14 14 14 16 16 15 14 16 15 12 11 13 12 10 9 8 6 7 8 9 10 10
6 6 6 16 18 18 17 8 7 6 21 23 25 24 21 20 18 17 17 17 16 15 14 16 18 15 15 15 16 16 15 14 14 15 16 13 12 11 11 9 5 8 6 6 6 8 10 10 9
8 5 7 19 21 14 23 8 3 13 22 23 21 21 20 18 18 17 18 19 19 18 16 18 18 16 15 15 15 15 15 14 15 15 12 10 9 8 8 4 6 8 8 6 6 7 7 9 11
3 1 3 6 16 11 8 10 12 18 18 23 21 21 19 18 18 17 18 20 20 19 18 19 17 16 15 13 13 13 13 14 12 11 11 10 9 9 8 9 10 8 6 5 5 6 6 8 9
3 2 5 6 4 9 4 6 22 26 18 23 23 21 20 19 18 19 18 20 20 19 19 19 17 15 15 15 13 11 11 11 11 10 9 9 9 9 10 10 8 6 7 5 4 4 5 7 8
8 4 6 6 5 6 7 7 23 25 20 22 23 22 22 21 23 21 20 18 19 19 18 17 16 16 16 15 13 11 10 10 10 9 9 7 6 6 7 8 6 6 7 6 6 6 4 5 7
8 5 8 5 4 6 5 11 18 25 24 23 21 23 23 23 21 19 20 21 20 20 18 17 17 17 18 17 15 13 10 9 9 9 8 8 7 5 6 7 5 7 8 7 6 5 4 5 7
8 10 7 10 3 7 8 4 15 22 23 23 23 24 24 22 20 20 24 23 22 21 19 17 18 18 15 15 15 13 10 8 6 6 7 6 7 6 6 7 7 7 7 7 5 3 4 5 7
4 3 8 7 9 11 10 2 9 6 13 12 13 21 23 24 23 22 26 26 24 24 21 19 18 19 15 13 14 14 13 10 9 8 5 5 5 8 8 9 8 8 7 7 5 4 4 6 7
7 7 9 17 7 4 3 2 8 12 10 18 23 14 23 24 24 25 26 28 28 25 22 20 19 18 16 14 13 12 11 8 9 6 6 5 6 6 8 9 9 8 6 7 4 2 4 6 7
1 13 13 15 7 7 9 4 4 14 16 17 26 26 20 26 26 28 28 30 28 26 22 19 20 19 18 16 14 12 9 7 6 6 6 8 7 6 8 8 8 9 6 5 5 4 2 4 6
9 15 12 5 2 3 11 8 6 14 27 21 33 35 29 22 27 31 32 30 30 28 24 22 21 20 18 18 16 14 10 7 8 7 6 6 6 6 9 8 9 9 8 5 6 6 3 2 3
9 14 5 3 3 4 3 9 7 16 10 28 33 32 30 24 26 27 25 31 32 31 28 25 23 21 19 19 16 15 11 9 7 9 8 7 4 6 7 7 8 10 9 7 9 8 6 5 3
13 11 6 7 6 4 6 7 1 4 14 21 34 34 33 25 27 29 28 34 34 33 31 28 26 24 22 19 15 15 13 9 4 8 8 8 7 6 7 6 7 8 7 8 10 9 8 6 7
7 9 7 1 1 5 5 3 3 4 9 18 27 30 34 30 26 28 29 32 36 34 31 30 28 25 24 21 17 14 15 12 8 6 5 8 9 8 8 8 8 7 7 7 8 9 9 9 8
7 9 10 5 8 7 4 3 4 8 9 13 18 27 27 29 26 27 30 30 35 31 31 28 28 27 25 22 20 16 14 14 11 9 7 8 11 9 8 8 7 7 6 6 8 8 8 9 11
6 5 3 6 3 9 6 4 3 8 12 14 15 20 21 22 24 28 30 30 30 27 26 24 27 25 23 20 23 19 17 15 15 12 9 6 10 9 7 8 9 10 12 7 6 8 8 10 9
2 10 13 9 10 1 3 2 3 6 13 16 16 16 16 18 21 23 26 29 26 24 24 21 20 22 23 27 22 25 20 17 18 16 13 11 10 9 8 9 8 9 12 10 6 6 8 8 7
Wind_Direction
155 140 112 15 215 259 84 100 95 124 140 148 146 155 127 62 45 102 143 148 149 147 147 142 147 134 129 133 132 120 126 131 117 117 111 108 108 107 105 99 101 97 102 102 103 98 98 96 94
147 137 84 7 349 90 83 102 135 145 145 144 114 132 96 78 77 134 140 147 149 152 147 145 145 136 126 127 130 135 126 122 129 128 128 117 115 111 111 104 111 102 110 102 101 103 94 87 94
143 104 84 16 62 52 102 123 138 131 138 144 112 84 74 70 127 139 146 147 152 149 143 144 146 136 125 121 122 129 135 126 132 133 124 121 112 112 110 110 112 107 111 110 105 103 95 88 87
141 68 44 68 111 19 55 138 139 135 142 115 118 75 74 130 134 147 144 148 151 148 143 140 138 129 119 110 111 107 124 127 116 125 120 119 115 115 116 118 117 110 106 99 98 94 95 89 90
132 75 90 99 2 53 91 122 145 137 151 135 132 96 112 139 149 144 145 149 151 147 141 138 134 129 119 114 111 111 113 117 121 123 116 115 112 112 114 123 117 110 107 100 100 96 90 89 83
76 27 107 172 134 355 86 115 138 138 141 118 108 114 107 135 148 146 148 150 151 143 135 133 133 124 117 116 111 110 105 112 120 119 125 119 115 108 110 122 122 114 104 99 96 97 92 86 78
67 143 162 202 158 336 88 96 136 132 133 116 134 112 133 144 152 149 149 150 151 144 136 132 130 134 124 119 116 107 108 113 115 112 125 128 122 110 109 113 123 115 108 103 98 91 86 83 78
162 221 155 43 163 181 343 102 115 124 93 131 134 146 157 160 153 151 153 155 152 145 142 143 140 134 131 123 119 114 113 117 119 121 131 132 126 107 107 115 123 121 112 108 99 89 79 75 73
170 279 110 143 138 146 197 132 83 108 126 122 160 143 148 151 152 154 157 157 153 148 151 143 142 134 129 130 120 121 123 127 126 121 125 133 129 113 97 110 123 120 114 106 100 88 78 66 63
219 257 90 132 107 176 135 128 123 112 124 112 117 127 143 150 155 158 159 163 162 158 153 149 145 141 142 131 126 129 127 131 128 130 130 132 131 113 109 110 114 124 113 108 95 85 74 61 52
168 122 127 134 83 206 125 108 131 120 139 161 143 145 151 156 161 164 162 165 167 165 156 149 146 141 139 127 116 122 135 132 132 133 134 133 129 116 109 108 110 118 120 110 94 78 71 70 71
263 137 139 147 175 199 175 121 110 69 165 158 148 149 153 158 165 168 166 165 169 168 156 152 146 143 144 133 120 116 126 131 128 126 134 140 131 118 115 112 112 117 119 107 84 61 59 86 86
227 140 166 184 188 179 148 120 110 79 130 143 147 149 155 159 167 171 168 163 161 161 158 153 146 144 141 134 128 122 125 128 125 128 129 130 128 118 123 121 113 132 129 97 88 64 60 89 89
164 142 159 154 167 152 142 144 95 124 139 147 153 154 160 164 166 168 168 165 162 156 150 150 146 141 135 133 122 118 119 123 122 125 133 132 125 124 135 141 123 144 137 112 92 86 83 83 84
164 124 108 156 160 141 123 145 147 146 157 157 162 159 164 168 167 170 166 158 154 149 147 145 146 142 141 138 128 121 117 122 123 127 127 133 132 135 151 165 149 145 139 123 112 92 92 87 80
166 218 153 104 158 150 145 165 168 165 165 169 169 171 173 178 176 173 168 162 158 156 146 147 147 147 149 149 142 133 125 126 124 125 126 123 122 128 142 139 138 145 135 119 121 86 97 73 66
157 192 168 127 90 151 148 133 164 185 172 177 178 177 179 186 188 182 180 175 168 159 159 157 151 147 154 154 153 151 143 130 130 127 133 124 114 117 126 135 137 129 127 129 111 77 74 61 46
171 176 145 146 167 176 165 123 170 185 186 187 184 181 183 190 195 192 188 185 187 180 174 167 165 167 160 164 165 163 151 147 137 126 129 133 120 119 132 140 142 146 137 127 126 113 73 50 28
154 182 124 103 40 90 4 155 170 181 197 196 185 189 191 195 196 195 196 191 191 195 191 187 177 174 176 173 171 172 160 153 154 145 136 138 141 138 134 144 145 148 157 145 129 108 85 61 38
126 146 99 89 44 91 48 171 167 184 204 197 188 194 195 195 190 196 200 200 200 197 198 195 185 179 178 185 185 181 172 175 174 166 164 158 174 172 167 165 151 155 162 162 156 106 87 68 49
151 145 155 133 121 74 100 32 180 150 180 186 190 201 200 197 195 202 203 204 206 206 206 203 194 185 188 191 193 194 194 196 195 192 180 182 175 169 164 171 164 155 155 165 154 122 87 74 56
173 203 138 135 144 130 191 198 228 184 173 215 215 198 205 205 202 201 203 207 209 208 209 211 206 198 198 195 192 197 197 208 206 204 197 199 197 191 182 185 187 176 178 182 174 142 96 81 71
54 173 151 161 98 138 194 164 200 194 204 197 211 217 208 208 206 205 207 209 208 209 208 207 210 207 206 201 198 201 201 203 197 206 201 202 195 189 183 194 192 187 193 193 193 188 134 94 81
121 130 103 115 141 225 195 214 191 192 208 196 205 216 214 214 209 214 215 211 210 210 212 212 209 208 212 210 208 209 218 221 212 211 219 209 222 217 204 193 189 199 207 215 203 198 196 164 118
184 175 150 181 198 228 157 204 254 201 197 204 201 205 205 209 207 213 207 207 209 210 210 213 214 211 211 212 215 219 216 221 249 239 218 204 203 212 208 208 200 208 209 223 211 206 210 213 213
190 211 195 197 193 195 131 214 221 181 214 215 210 209 204 208 207 210 206 206 211 209 213 214 217 217 216 217 222 223 220 223 234 202 221 216 214 206 212 204 197 190 210 224 216 216 216 230 234
174 222 246 121 7 199 171 224 229 233 217 201 203 201 199 210 211 207 210 208 213 213 216 219 221 222 223 224 228 229 230 226 226 222 214 220 216 209 208 203 199 208 218 220 217 226 229 238 245
219 182 202 223 207 229 195 243 179 175 170 177 188 190 197 202 205 207 217 217 216 217 218 222 230 229 231 233 234 237 232 229 235 232 227 234 220 210 199 192 201 207 214 225 229 238 244 253 243
174 202 207 222 267 217 203 222 175 168 172 172 166 172 179 179 196 207 216 217 221 222 225 226 231 236 236 232 233 235 235 232 234 238 229 196 192 214 233 232 228 230 227 227 238 238 249 246 249
239 220 202 218 198 235 298 149 320 175 166 171 164 159 159 180 192 201 209 213 211 210 218 216 231 240 242 239 238 234 234 237 235 235 237 225 219 229 232 232 238 244 220 223 232 238 241 250 246